Карточка аэропорта UNWW

Внимание!
Информация на этой странице в стадии наполнения.
Если вы не увидели какой-то информации, или заметили неточность - пожалуйста сообщите нам!
Спасибо!
Команда RU-STAFF
Название аэропортаСпиченково
Название аэропорта (англ.)Spichenkovo
Превышение1023 ft. (311.8 m.)
Координаты53°48.714', 86°52.704'
Высота перехода800m
Эшелон переходаFL050
Коды ответчика5270-5277
Зона ОрВДНовосибирск РПИ (UNNT)
Данные METARUNWW 211100Z 01002MPS 320V050 9999 SCT044 11/M09 Q1026 R19/09//55 NOSIG RMK QFE742
Проноз погоды (TAF)UNWW 210800Z 2109/2209 30003G08MPS 8000 BKN040CB TX11/2208Z TN05/2201Z BECMG 2112/2115 17003G08MPS TEMPO 2115/2202 22008G16MPS -SHRA BKN016CB BECMG 2202/2203 29006G12MPS BKN020CB
NOTAMshow/hide NOTAM
AWOS   TABLE

Информация о ВПП

ВПП Длина ВПП (м.) Покрытие Курс ВПП Частота ILS
012679Цементобетон14 
192679Цементобетон194111.1

Диспетчерские позиции

Позывной Наименование органа УВД Частота
UNWW_APPНовокузнецк-Подход118.6
UNWW_TWRНовокузнецк-Старт121.2



Спутниковое изображение